Weather in Semenovo

Russia / Nizhny Novgorod Oblast'     55°22′05″N   43°32′44″E
temp.,
°C
wind,
m/s
gust,
m/s
humid.,
%
clouds,
%
prec.,
mm/h
press.,
hPa
HPBL,
m
28 january, thu
thu2800:00+1s71398100 1.9 1011413
03:00+1s61397100 2.8 1010461
06:000s61195100 0.7 1010379
09:00−1s61092100 1.2 1010443
12:00−1s61093100 0.0 1011523
15:00−2sse5992100 0.0 1010514
18:00−3sse4893100 0.0 1010421
21:00−4sse51093100 0.1 1010490
29 january, fri
fri2900:00−4sse4794100 0.1 1010336
03:00−4sse5893100 0.1 1008412
06:00−4sse5994100 0.3 1007445
09:00−4sse51193100 0.8 1006396
12:00−2sse61095100 0.2 1005404
15:00−1s5993100 0.3 1004480
18:00−2sse51293100 0.0 1004419
21:00−3sse51293100 0.0 1002430
30 january, sat
sat3000:00−2sse61291100 0.0 1001641
03:00−2s61292100 0.0 1000663
06:00−2s61196100 0.3 998615
09:00−3s51093100 0.9 998546
12:00−2ssw379182 0.1 998588
15:00−4sw488963 0.1 1000216
18:00−6ssw410915 0.0 1002271
21:00−6ssw5119229 0.0 1004336
31 january, sun
sun3100:00−5s61192100 0.0 1004349
03:00−4sse61295100 0.1 1002434
06:00+1s71597100 1.0 998647
09:00+1s101795100 2.4 997831
12:00+1sse101881100 0.1 995965
15:000sse111996100 2.5 9911136
18:00+1sse101797100 2.8 987839
21:00−1ssw9159298 3.9 9871027
1 february, mon
mon100:00−2wsw12199399 0.4 992944
03:00−5wsw91687100 0.8 1000852
06:00−7wsw71489100 0.1 1004746
09:00−6sw71391100 0.1 1009629
12:00−6sw81289100 0.1 1012681
15:00−6sw51192100 0.1 1013415
18:00−6ssw61290100 0.0 1014385
21:00−6s4992100 0.0 1013273